TimeAKST,TemperatureF,Dew PointF,Humidity,Sea Level PressureIn,VisibilityMPH,Wind Direction,Wind SpeedMPH,Gust SpeedMPH,PrecipitationIn,Events,Conditions,WindDirDegrees,DateUTC
12:23 AM,12.2,8.6,85,29.99,10.0,Calm,Calm,-,N/A,,Mostly Cloudy,0,2013-01-12 09:23:00
12:53 AM,12.0,9.0,88,30.01,10.0,NW,3.5,-,N/A,,Mostly Cloudy,320,2013-01-12 09:53:00
1:53 AM,12.9,9.0,84,30.01,10.0,Calm,Calm,-,N/A,,Overcast,0,2013-01-12 10:53:00
3:53 AM,15.1,12.0,88,29.96,3.0,NNW,3.5,-,0.00,Snow,Light Snow,340,2013-01-12 12:53:00
3:56 AM,15.8,12.2,86,29.93,1.8,Calm,Calm,-,0.00,Snow,Light Snow,0,2013-01-12 12:56:00
4:09 AM,15.8,10.4,79,29.94,3.0,Calm,Calm,-,0.00,Snow,Light Snow,0,2013-01-12 13:09:00
4:18 AM,15.8,12.2,86,29.95,1.8,South,3.5,-,0.00,Snow,Light Snow,190,2013-01-12 13:18:00
4:40 AM,15.8,12.2,86,29.94,0.8,Calm,Calm,-,0.02,Snow,Light Snow,0,2013-01-12 13:40:00
4:53 AM,16.0,12.9,88,29.96,0.8,Calm,Calm,-,0.04,Snow,Light Snow,0,2013-01-12 13:53:00
5:36 AM,15.8,12.2,86,29.90,1.0,Calm,Calm,-,0.04,Snow,Light Snow,0,2013-01-12 14:36:00
5:43 AM,15.8,12.2,86,29.90,1.2,Calm,Calm,-,0.05,Snow,Light Snow,0,2013-01-12 14:43:00
5:51 AM,15.8,14.0,93,29.90,1.8,Calm,Calm,-,0.05,Snow,Light Snow,0,2013-01-12 14:51:00
5:53 AM,16.0,14.0,92,29.93,1.8,Calm,Calm,-,0.05,Snow,Light Snow,0,2013-01-12 14:53:00
6:19 AM,17.6,14.0,86,29.88,2.5,Calm,Calm,-,0.01,Snow,Light Snow,0,2013-01-12 15:19:00
6:48 AM,17.6,15.8,93,29.87,9.0,Calm,Calm,-,0.02,Snow,Light Snow,0,2013-01-12 15:48:00
6:53 AM,17.1,15.1,92,29.89,8.0,Calm,Calm,-,0.02,Snow,Light Snow,0,2013-01-12 15:53:00
7:16 AM,17.6,15.8,93,29.85,4.0,Calm,Calm,-,0.00,Snow,Light Snow,0,2013-01-12 16:16:00
7:53 AM,19.0,16.0,88,29.86,3.0,Calm,Calm,-,0.00,Snow,Light Snow,0,2013-01-12 16:53:00
8:03 AM,19.4,15.8,86,29.83,4.0,Calm,Calm,-,0.00,Snow,Light Snow,0,2013-01-12 17:03:00
8:16 AM,19.4,17.6,93,29.82,9.0,Calm,Calm,-,0.01,Snow,Light Snow,0,2013-01-12 17:16:00
8:53 AM,19.0,17.1,92,29.83,9.0,Calm,Calm,-,0.01,Snow,Light Snow,0,2013-01-12 17:53:00
9:42 AM,19.4,17.6,93,29.78,9.0,West,3.5,-,0.00,,Overcast,280,2013-01-12 18:42:00
9:53 AM,21.0,18.0,88,29.81,10.0,West,3.5,-,0.00,,Overcast,270,2013-01-12 18:53:00
10:10 AM,21.2,19.4,93,29.77,10.0,Calm,Calm,-,N/A,,Overcast,0,2013-01-12 19:10:00
10:53 AM,21.9,19.9,92,29.78,10.0,Calm,Calm,-,N/A,,Overcast,0,2013-01-12 19:53:00
11:53 AM,23.0,21.0,92,29.76,10.0,Calm,Calm,-,N/A,,Overcast,0,2013-01-12 20:53:00
12:32 PM,23.0,21.2,93,29.71,2.0,Calm,Calm,-,0.00,Snow,Light Snow,0,2013-01-12 21:32:00
12:42 PM,24.8,21.2,86,29.71,1.2,Calm,Calm,-,0.00,Snow,Light Snow,0,2013-01-12 21:42:00
12:48 PM,24.8,21.2,86,29.70,1.0,Calm,Calm,-,0.00,Snow,Light Snow,0,2013-01-12 21:48:00
12:53 PM,24.1,21.9,91,29.73,0.5,Calm,Calm,-,0.01,Fog-Snow,Snow,0,2013-01-12 21:53:00
1:07 PM,24.8,21.2,86,29.70,0.2,Calm,Calm,-,0.02,Fog-Snow,Snow,0,2013-01-12 22:07:00
1:19 PM,24.8,21.2,86,29.70,0.5,Calm,Calm,-,0.04,Fog-Snow,Snow,0,2013-01-12 22:19:00
1:33 PM,24.8,21.2,86,29.70,0.5,WNW,3.5,-,0.06,Fog-Snow,Snow,290,2013-01-12 22:33:00
1:53 PM,24.1,21.9,91,29.71,0.2,NW,3.5,-,0.10,Fog-Snow,Snow,310,2013-01-12 22:53:00
2:53 PM,24.1,21.9,91,29.67,0.5,WSW,3.5,-,0.09,Fog-Snow,Snow,250,2013-01-12 23:53:00
3:05 PM,24.8,23.0,93,29.64,0.5,Calm,Calm,-,0.02,Fog-Snow,Snow,0,2013-01-13 00:05:00
3:37 PM,24.8,23.0,93,29.62,0.5,Calm,Calm,-,0.08,Fog-Snow,Snow,0,2013-01-13 00:37:00
4:20 PM,26.6,24.8,93,29.59,1.5,Calm,Calm,-,0.03,Snow,Light Snow,0,2013-01-13 01:20:00
4:40 PM,28.4,26.6,93,29.58,2.5,East,8.1,-,0.06,Snow,Light Snow,100,2013-01-13 01:40:00
4:53 PM,28.0,26.1,92,29.59,2.5,Variable,5.8,-,0.07,Snow,Light Snow,0,2013-01-13 01:53:00
4:57 PM,28.4,26.6,93,29.56,3.0,ESE,8.1,-,0.01,Snow,Light Snow,110,2013-01-13 01:57:00
5:10 PM,28.4,26.6,93,29.55,6.0,ESE,6.9,-,0.02,Snow,Light Snow,120,2013-01-13 02:10:00
5:34 PM,28.4,26.6,93,29.54,7.0,ESE,6.9,-,0.05,,Overcast,120,2013-01-13 02:34:00
5:53 PM,30.0,27.0,88,29.57,7.0,Variable,6.9,-,0.08,,Overcast,0,2013-01-13 02:53:00
6:53 PM,30.0,27.0,88,29.55,5.0,ESE,9.2,18.4,0.06,,Overcast,110,2013-01-13 03:53:00
7:53 PM,30.0,27.0,88,29.53,4.0,North,-9999.0,-,0.07,,Overcast,0,2013-01-13 04:53:00
8:13 PM,30.2,26.6,86,29.51,4.0,North,-9999.0,-,0.00,,Overcast,0,2013-01-13 05:13:00
8:28 PM,30.2,28.4,93,29.51,4.0,North,-9999.0,-,0.01,,Overcast,0,2013-01-13 05:28:00
8:53 PM,30.0,28.0,92,29.53,4.0,North,-9999.0,-,0.03,,Overcast,0,2013-01-13 05:53:00
9:50 PM,30.2,28.4,93,29.52,4.0,North,-9999.0,-,0.01,,Overcast,0,2013-01-13 06:50:00
10:22 PM,30.2,28.4,93,29.52,5.0,North,-9999.0,-,0.03,Rain,Light Freezing Rain,0,2013-01-13 07:22:00
10:46 PM,30.2,28.4,93,29.52,6.0,North,-9999.0,-,0.06,Rain,Light Freezing Rain,0,2013-01-13 07:46:00
10:53 PM,30.0,28.0,92,29.54,4.0,ESE,116.2,127.7,0.06,Rain,Light Freezing Rain,110,2013-01-13 07:53:00
11:00 PM,30.2,28.4,93,29.53,4.0,North,-9999.0,-,0.01,Rain,Light Freezing Rain,0,2013-01-13 08:00:00
11:12 PM,30.2,28.4,93,29.53,6.0,North,-9999.0,-,0.01,,Overcast,0,2013-01-13 08:12:00
11:29 PM,30.2,28.4,93,29.52,4.0,East,117.4,-,0.02,,Overcast,90,2013-01-13 08:29:00